Home > Weather > Karlstad > Past weeks

Flag for Sweden Past Weather in Karlstad, Sweden — Yesterday and Last 2 Weeks

Now
64 °F

Sunny.


Feels Like: 64 °F
Forecast: 53 / 65 °F
Wind: 12 mph from Southwest

Location: Karlstad

Current Time: Jun 28, 2016 at 8:44:42 PM

Latest Report: Jun 28, 2016 at 7:50 PM


Visibility: 10 mi

Pressure: 29.86 "Hg

Humidity: 49%

Dew Point: 45 °F

Location of KarlstadLocation

Past Weather in Karlstad — Graph

°F

Karlstad Temperature Yesterday

Maximum temperature yesterday: 66 °F (at 2:50 PM)
Minimum temperature yesterday: 48 °F (at 4:50 AM)
Average temperature yesterday: 59 °F

High & Low Weather Summary for the Past Weeks

 TemperatureHumidityPressure
High73 °F (Jun 16, 1:50 PM)100% (Jun 19, 4:20 PM)30.18 "Hg (Jun 19, 4:20 PM)
Low43 °F (Jun 14, 2:20 AM)25% (Jun 16, 2:20 PM)29.47 "Hg (Jun 18, 4:50 AM)
Average61 °F75%29.83 "Hg
* Reported Jun 13 7:20 PM — Jun 28 7:20 PM, Karlstad, Weather by CustomWeather, © 2016

Note: Actual official high and low records may vary slightly from our data, if they occured in-between our weather recording intervals... More about our weather records

Advertising

Karlstad Weather History for the Previous 24 Hours

Scroll right to see more
 ConditionsComfort  
Time TempWeatherWind HumidityBarometerVisibility
7:20 PM
Tue, Jun 28
64 °FSunny.10 mph49%29.86 "Hg10 mi
6:50 PM66 °FSunny.10 mph49%29.86 "Hg10 mi
6:20 PM66 °FSunny.14 mph46%29.86 "Hg10 mi
5:50 PM66 °FSunny.10 mph49%29.83 "Hg10 mi
5:20 PM66 °FPassing clouds.12 mph46%29.83 "HgN/A
4:50 PM66 °FPassing clouds.12 mph46%29.83 "HgN/A
4:20 PM68 °FSunny.12 mph43%29.83 "Hg10 mi
3:50 PM66 °FSunny.12 mph49%29.83 "Hg10 mi
3:20 PM66 °FPassing clouds.12 mph46%29.83 "HgN/A
2:50 PM68 °FScattered clouds.12 mph46%29.83 "HgN/A
2:20 PM66 °FScattered clouds.10 mph46%29.83 "HgN/A
1:50 PM64 °FScattered clouds.12 mph52%29.83 "HgN/A
1:20 PM63 °FScattered clouds.12 mph56%29.83 "HgN/A
12:50 PM63 °FScattered clouds.13 mph56%29.83 "HgN/A
12:20 PM64 °FScattered clouds.12 mph56%29.83 "HgN/A
11:50 AM64 °FScattered clouds.15 mph56%29.83 "HgN/A
11:20 AM63 °FScattered clouds.13 mph56%29.83 "HgN/A
10:50 AM63 °FScattered clouds.14 mph59%29.83 "HgN/A
10:20 AM59 °FScattered clouds.12 mph68%29.83 "HgN/A
9:50 AM63 °FScattered clouds.10 mph59%29.80 "HgN/A
9:20 AM63 °FScattered clouds.14 mph64%29.80 "HgN/A
8:50 AM61 °FScattered clouds.12 mph77%29.80 "HgN/A
8:20 AM61 °FBroken clouds.10 mph77%29.80 "HgN/A
7:50 AM61 °FScattered clouds.10 mph77%29.80 "HgN/A
7:20 AM59 °FBroken clouds.9 mph82%29.80 "HgN/A
6:50 AM59 °FBroken clouds.8 mph88%29.80 "HgN/A
6:20 AM57 °FBroken clouds.8 mph94%29.80 "HgN/A
5:50 AM57 °FBroken clouds.10 mph94%29.80 "HgN/A
5:20 AM57 °FBroken clouds.10 mph94%29.77 "HgN/A
4:50 AM57 °FPartly cloudy.12 mph94%29.77 "HgN/A
4:20 AM57 °FPartly cloudy.10 mph94%29.77 "HgN/A
3:50 AM57 °FMostly cloudy.12 mph94%29.77 "HgN/A
3:20 AM57 °FPartly cloudy.10 mph94%29.77 "HgN/A
2:50 AM57 °FPassing clouds.10 mph94%29.80 "HgN/A
2:20 AM57 °FLow clouds.10 mph94%29.80 "HgN/A
1:50 AM57 °FOvercast.10 mph94%29.80 "HgN/A
1:20 AM57 °FPartly cloudy.12 mph94%29.80 "HgN/A
12:50 AM57 °FPassing clouds.10 mph94%29.80 "HgN/A
12:20 AM57 °FPartly cloudy.9 mph94%29.80 "HgN/A
11:50 PM
Mon, Jun 27
57 °FMostly cloudy.8 mph94%29.80 "HgN/A
11:20 PM57 °FRain. Broken clouds.9 mph94%29.80 "Hg5 mi
10:50 PM59 °FMostly cloudy.10 mph82%29.80 "HgN/A
10:20 PM59 °FMore clouds than sun.8 mph82%29.80 "HgN/A
9:50 PM59 °FSunny.9 mph82%29.80 "Hg10 mi
9:20 PM59 °FSunny.12 mph77%29.80 "Hg10 mi
8:50 PM61 °FSunny.12 mph77%29.80 "Hg10 mi
8:20 PM61 °FScattered showers. Scattered clouds.13 mph77%29.80 "HgN/A
Weather by CustomWeather, © 2016

See weather overviewHow to use our weather pages